Bradford, PA

5:35 PM EDT on October 18, 2017 (GMT -0400)
Bradford Regional

Weather History for KBFD - October, 2014

Change the Weather History Date:

Thursday, October 16, 2014

  Actual Average Record
Temperature  
Mean Temperature 56 °F 46 °F  
Max Temperature 61 °F 57 °F 75 °F (1962)
Min Temperature 50 °F 36 °F 24 °F (2006)
Degree Days  
Heating Degree Days 9 14  
Month to date heating degree days 206 192  
Since 1 July heating degree days 607 609  
Cooling Degree Days 0 0  
Month to date cooling degree days 1 0  
Year to date cooling degree days 196 192  
Growing Degree Days 5 (Base 50)    
Moisture  
Dew Point 51 °F    
Average Humidity 80    
Maximum Humidity 100    
Minimum Humidity 60    
Precipitation  
Precipitation 0.01 in 0.11 in 0.88 in (2013)
Month to date precipitation 2.53 1.86  
Year to date precipitation 36.12 35.73  
Sea Level Pressure  
Sea Level Pressure 29.72 in    
Wind  
Wind Speed 4 mph (SW)    
Max Wind Speed 15 mph    
Max Gust Speed 20 mph    
Visibility 7 miles    
Events Fog , Rain    
T = Trace of Precipitation, MM = Missing Value Source: NWS Daily Summary

Daily Weather History Graph

Daily Weather History Graph

Search for Another Location

Airport or City:

Trip Planner

Search our weather history database for the weather conditions in past years. The results will help you decide how hot, cold, wet, or windy it might be!

Date:

Astronomy

Oct. 16, 2014 Rise Set
Actual Time 7:27 AM EDT 6:31 PM EDT
Civil Twilight 6:59 AM EDT 6:59 PM EDT
Nautical Twilight 6:27 AM EDT 7:31 PM EDT
Astronomical Twilight 5:55 AM EDT 8:04 PM EDT
Moon 12:31 AM EDT (10/16) 2:46 PM EDT (10/16)
Length of Visible Light 11h 59m
Length of Day
11h 03m
Last Quarter, 42% of the Moon is Illuminated
Oct 16
Last Quarter
Oct 23
New
Oct 30
First Quarter
Nov 6
Full
Nov 14
Last Quarter

Hourly Weather History & Observations

Time (EDT) Temp. Dew Point Humidity Pressure Visibility Wind Dir Wind Speed Gust Speed Precip Events Conditions
12:01 AM 55.0 °F 53.1 °F 93% 29.78 in 1.8 mi ESE 4.6 mph - N/A   Scattered Clouds
12:06 AM 54.0 °F 52.0 °F 93% 29.77 in 0.8 mi SE 4.6 mph - N/A   Scattered Clouds
12:15 AM 54.0 °F 53.1 °F 97% 29.77 in 2.5 mi SE 4.6 mph - N/A   Scattered Clouds
12:22 AM 54.0 °F 53.1 °F 97% 29.77 in 7.0 mi ESE 4.6 mph - N/A   Scattered Clouds
12:50 AM 53.6 °F 53.6 °F 100% 29.75 in 10.0 mi SE 4.6 mph - N/A   Mostly Cloudy
12:53 AM 54.0 °F 53.1 °F 97% 29.73 in 9.0 mi ESE 5.8 mph - N/A   Mostly Cloudy
1:01 AM 54.0 °F 53.1 °F 97% 29.75 in 1.8 mi ESE 4.6 mph - N/A   Scattered Clouds
1:12 AM 54.0 °F 53.1 °F 97% 29.75 in 2.5 mi Calm Calm - N/A   Scattered Clouds
1:21 AM 54.0 °F 53.1 °F 97% 29.75 in 10.0 mi Calm Calm - N/A   Mostly Cloudy
1:31 AM 55.0 °F 54.0 °F 96% 29.75 in 10.0 mi WSW 3.5 mph - N/A   Mostly Cloudy
1:53 AM 55.9 °F 55.0 °F 97% 29.74 in 10.0 mi Calm Calm - N/A   Overcast
2:14 AM 55.0 °F 54.0 °F 96% 29.75 in 10.0 mi Calm Calm - N/A   Mostly Cloudy
2:23 AM 54.0 °F 53.1 °F 97% 29.75 in 1.2 mi Calm Calm - N/A   Mostly Cloudy
2:31 AM 54.0 °F 53.1 °F 97% 29.74 in 0.5 mi Calm Calm - N/A Fog Fog
2:46 AM 52.0 °F 51.1 °F 97% 29.74 in 1.0 mi Calm Calm - N/A   Mostly Cloudy
2:53 AM 52.0 °F 51.1 °F 97% 29.72 in 0.5 mi Calm Calm - N/A Fog Fog
3:06 AM 53.1 °F 52.0 °F 96% 29.74 in 2.0 mi Calm Calm - N/A   Overcast
3:13 AM 53.1 °F 52.0 °F 96% 29.73 in 10.0 mi Calm Calm - N/A   Overcast
3:29 AM 55.0 °F 54.0 °F 96% 29.72 in 10.0 mi Calm Calm - N/A   Overcast
3:53 AM 54.0 °F 52.0 °F 93% 29.70 in 9.0 mi Calm Calm - N/A   Mostly Cloudy
4:30 AM 53.1 °F 52.0 °F 96% 29.72 in 5.0 mi West 3.5 mph - N/A   Mostly Cloudy
4:45 AM 53.1 °F 51.1 °F 93% 29.72 in 10.0 mi Calm Calm - N/A   Partly Cloudy
4:53 AM 53.1 °F 51.1 °F 93% 29.70 in 10.0 mi Calm Calm - N/A   Partly Cloudy
5:04 AM 52.0 °F 51.1 °F 97% 29.72 in 4.0 mi Calm Calm - N/A   Scattered Clouds
5:07 AM 51.1 °F 50.0 °F 96% 29.72 in 1.8 mi Calm Calm - N/A   Mostly Cloudy
5:16 AM 50.0 °F 48.9 °F 96% 29.72 in 0.5 mi Calm Calm - N/A Fog Fog
5:32 AM 51.1 °F 50.0 °F 96% 29.72 in 0.8 mi Calm Calm - N/A   Overcast
5:46 AM 52.0 °F 51.1 °F 97% 29.73 in 1.0 mi Calm Calm - N/A   Overcast
5:50 AM 51.8 °F 51.8 °F 100% 29.73 in 3.0 mi Calm Calm - N/A   Overcast
5:53 AM 52.0 °F 51.1 °F 97% 29.71 in 5.0 mi Calm Calm - N/A   Overcast
6:39 AM 53.1 °F 51.1 °F 93% 29.72 in 8.0 mi Calm Calm - N/A   Overcast
6:53 AM 53.1 °F 52.0 °F 96% 29.71 in 6.0 mi Calm Calm - N/A   Overcast
7:01 AM 53.1 °F 52.0 °F 96% 29.73 in 6.0 mi SSW 3.5 mph - N/A   Overcast
7:31 AM 53.1 °F 51.1 °F 93% 29.73 in 7.0 mi WSW 3.5 mph - N/A   Overcast
7:44 AM 53.1 °F 51.1 °F 93% 29.72 in 1.5 mi West 4.6 mph - N/A   Overcast
7:53 AM 52.0 °F 51.1 °F 97% 29.72 in 0.5 mi West 3.5 mph - N/A Fog Fog
8:13 AM 52.0 °F 51.1 °F 97% 29.72 in 2.0 mi West 4.6 mph - N/A   Overcast
8:20 AM 52.0 °F 51.1 °F 97% 29.73 in 7.0 mi Variable 4.6 mph - N/A   Overcast
8:36 AM 53.1 °F 51.1 °F 93% 29.73 in 8.0 mi West 3.5 mph - N/A   Overcast
8:46 AM 53.1 °F 51.1 °F 93% 29.73 in 8.0 mi West 5.8 mph - N/A   Overcast
8:53 AM 53.1 °F 51.1 °F 93% 29.72 in 9.0 mi WSW 3.5 mph - N/A   Overcast
9:53 AM 54.0 °F 50.0 °F 86% 29.73 in 10.0 mi WSW 5.8 mph - N/A   Overcast
10:53 AM 55.0 °F 50.0 °F 83% 29.72 in 10.0 mi West 4.6 mph - N/A   Overcast
11:30 AM 55.9 °F 48.9 °F 77% 29.73 in 10.0 mi Variable 3.5 mph - N/A   Overcast
11:53 AM 55.0 °F 48.9 °F 80% 29.72 in 10.0 mi SW 8.1 mph - N/A   Overcast
12:04 PM 55.9 °F 48.9 °F 77% 29.73 in 10.0 mi West 8.1 mph - N/A   Overcast
12:12 PM 55.0 °F 48.9 °F 80% 29.73 in 10.0 mi West 6.9 mph - N/A   Overcast
12:24 PM 55.0 °F 48.9 °F 80% 29.73 in 10.0 mi West 11.5 mph - N/A   Overcast
12:53 PM 55.0 °F 48.9 °F 80% 29.72 in 10.0 mi Variable 3.5 mph - N/A   Overcast
1:13 PM 55.9 °F 48.0 °F 75% 29.72 in 10.0 mi SW 5.8 mph - N/A   Overcast
1:53 PM 57.9 °F 48.0 °F 70% 29.69 in 10.0 mi SW 8.1 mph - N/A   Overcast
2:53 PM 59.0 °F 46.9 °F 64% 29.68 in 10.0 mi Variable 5.8 mph - N/A   Overcast
3:53 PM 60.1 °F 46.0 °F 60% 29.67 in 10.0 mi SW 8.1 mph - N/A   Mostly Cloudy
4:53 PM 60.1 °F 46.9 °F 62% 29.67 in 10.0 mi SSW 8.1 mph - N/A   Overcast
5:53 PM 57.9 °F 46.0 °F 65% 29.69 in 10.0 mi WSW 9.2 mph - N/A   Mostly Cloudy
6:05 PM 57.9 °F 46.0 °F 65% 29.70 in 10.0 mi Variable 6.9 mph - N/A   Overcast
6:34 PM 52.0 °F 48.0 °F 86% 29.71 in 7.0 mi West 6.9 mph - 0.01 in Rain Light Rain
6:53 PM 52.0 °F 48.0 °F 86% 29.71 in 10.0 mi WSW 4.6 mph - 0.01 in   Overcast
7:53 PM 52.0 °F 46.9 °F 83% 29.72 in 10.0 mi SW 5.8 mph - 0.00 in   Overcast
8:53 PM 52.0 °F 48.0 °F 86% 29.72 in 10.0 mi WSW 5.8 mph - 0.00 in   Overcast
9:37 PM 51.1 °F 48.0 °F 89% 29.72 in 10.0 mi Variable 4.6 mph - 0.00 in   Scattered Clouds
9:46 PM 51.1 °F 48.0 °F 89% 29.72 in 10.0 mi WSW 5.8 mph - 0.00 in   Mostly Cloudy
9:53 PM 51.1 °F 48.0 °F 89% 29.72 in 10.0 mi WSW 6.9 mph - 0.00 in   Overcast
10:53 PM 51.1 °F 48.9 °F 92% 29.71 in 10.0 mi Variable 3.5 mph - N/A   Overcast
11:53 PM 52.0 °F 48.0 °F 86% 29.71 in 10.0 mi WSW 5.8 mph - N/A   Overcast